GEFSCGP_500_meanwind_222.txt.gz
Wind_Speed
10 9 7 7 6 5 6 6 6 7 8 9 9 10 10 11 13 14 14 16 17 19 18 19 19 19 20 20 20 21 21 22 23 25 26 26 27 28 28 27 27 28 27 26
10 8 8 8 7 6 6 6 8 9 9 10 11 11 11 13 13 14 16 17 18 20 19 19 19 19 19 20 21 21 22 23 24 25 26 27 28 28 28 27 27 27 26 26
8 8 8 8 6 6 7 8 8 9 9 11 13 12 12 13 14 16 17 18 19 20 20 20 20 20 20 20 21 21 22 23 25 26 26 27 27 28 27 26 26 26 26 26
9 8 7 6 6 7 9 10 11 10 11 12 13 14 13 14 15 17 18 19 20 20 21 21 20 21 21 21 22 22 22 23 25 26 26 27 27 27 27 26 26 26 26 26
7 7 7 7 7 8 9 11 12 11 12 13 14 15 14 14 15 16 18 19 19 20 20 21 22 21 22 22 22 23 23 24 24 25 27 27 27 27 27 25 25 25 25 26
6 5 6 7 8 9 10 11 11 12 13 14 15 16 16 15 15 16 17 19 20 20 21 22 22 22 22 22 23 23 23 24 24 26 27 27 27 27 27 26 25 25 24 24
6 6 7 7 8 9 10 11 12 13 13 14 15 16 16 16 17 17 18 20 20 21 21 21 22 22 23 23 23 23 23 24 25 26 26 26 27 27 27 26 25 24 24 23
8 7 8 8 9 10 11 12 13 14 15 15 15 15 16 17 18 18 19 19 20 20 21 21 22 22 21 22 23 23 23 23 25 25 26 26 26 27 26 24 23 23 22 22
9 9 9 10 10 11 12 13 14 15 16 17 16 16 17 17 18 19 19 20 20 20 20 20 21 20 20 21 22 22 22 22 24 25 26 26 26 25 24 23 22 22 20 20
11 11 11 11 12 12 14 15 16 17 18 18 17 17 18 19 19 20 20 21 20 20 20 19 19 19 20 20 20 20 21 21 23 25 25 25 24 22 22 22 21 20 18 19
12 12 12 13 13 13 14 15 16 17 18 18 19 19 19 19 19 20 20 20 20 20 19 19 18 18 19 19 19 20 20 21 22 23 23 23 22 21 21 20 19 18 18 18
13 14 14 14 14 15 15 15 16 17 18 19 19 19 19 20 20 20 20 20 19 18 17 16 17 18 19 19 18 18 19 20 21 20 21 21 20 20 20 19 18 17 17 18
15 16 16 16 16 16 17 17 17 19 19 20 20 20 20 20 20 20 20 19 19 17 16 15 16 17 18 17 17 17 18 18 18 18 19 19 19 19 18 18 18 17 17 17
17 18 18 18 17 17 17 18 19 20 20 21 20 20 19 20 20 20 19 18 17 16 15 14 15 15 16 16 16 17 17 17 17 17 18 18 19 18 18 18 17 17 16 17
19 19 19 19 19 19 19 19 20 20 20 21 20 19 19 20 20 19 18 16 16 15 14 13 14 15 15 16 16 16 16 16 16 16 17 18 19 18 18 17 17 17 17 17
21 21 21 21 21 21 20 20 21 21 21 21 20 20 20 20 19 17 17 16 16 14 13 13 14 14 15 16 16 16 16 16 16 16 17 18 18 17 17 17 18 18 18 18
23 23 23 23 22 23 22 21 20 20 20 21 20 19 19 18 17 16 16 15 16 15 14 14 14 15 16 16 17 16 16 16 16 17 17 17 17 17 17 18 19 18 18 18
24 24 24 24 23 24 22 21 21 21 20 20 20 19 19 17 16 15 15 15 15 15 14 15 16 15 15 15 15 15 15 16 16 17 17 17 18 18 19 19 19 19 18 17
26 25 25 25 25 24 22 22 22 22 21 20 20 20 19 18 17 16 15 15 15 15 14 15 15 15 15 15 14 15 15 15 15 16 17 17 17 17 18 18 18 18 18 17
27 27 27 27 27 26 24 23 23 23 22 21 21 20 19 18 17 16 16 16 16 16 15 14 14 15 15 15 14 14 14 15 15 15 16 16 16 17 17 18 19 19 18 17
28 28 28 28 28 27 25 24 24 24 23 22 21 20 19 19 18 17 16 16 16 16 15 15 15 16 15 14 14 14 14 14 14 14 15 15 16 16 17 18 18 18 18 17
29 30 29 29 29 29 27 26 25 24 24 23 22 21 21 20 20 19 18 17 17 17 16 17 17 16 16 14 14 14 14 13 14 14 14 15 16 17 17 17 17 17 16 17
31 31 31 31 30 30 30 28 27 26 26 26 25 23 22 21 20 19 19 18 18 17 17 18 18 16 16 15 14 14 14 13 13 14 15 16 16 17 16 16 16 15 16 16
31 31 32 32 32 31 31 29 28 28 27 27 25 24 23 21 21 20 19 19 19 19 19 19 18 17 17 16 15 15 14 14 14 14 15 15 16 16 16 16 15 15 15 16
32 32 32 33 33 32 31 31 30 29 29 27 26 25 24 23 22 21 21 22 21 21 20 20 19 18 17 16 15 15 15 14 13 13 14 14 15 15 16 15 15 15 15 16
32 32 32 32 32 33 32 31 31 30 29 27 26 26 25 25 24 24 23 22 22 21 21 20 19 18 17 16 15 15 15 14 13 13 13 14 14 14 15 14 14 14 15 16

GEFSCGP_500_meanwind_228.txt.gz
Wind_Speed
9 9 8 7 7 7 7 7 7 8 9 9 10 11 13 13 14 14 15 16 17 17 18 19 19 19 20 20 21 22 22 21 22 23 24 25 25 25 25 26 26 26 25 24
8 8 8 8 7 6 6 6 8 9 9 9 10 12 13 14 15 15 16 17 18 18 19 19 19 20 21 22 22 23 22 22 22 23 23 24 24 25 25 26 26 26 25 24
8 8 8 8 7 6 7 7 8 9 10 10 11 12 13 14 15 16 17 17 18 19 19 19 20 21 22 23 23 23 22 22 22 23 23 24 25 25 26 26 26 26 25 24
9 9 8 8 8 8 7 8 9 10 10 11 12 13 14 14 15 16 17 18 18 19 20 20 21 21 22 23 23 22 22 21 22 22 23 24 24 25 25 25 25 24 23 23
8 8 8 8 8 8 8 9 9 10 11 11 13 13 14 14 15 16 17 18 19 20 20 20 21 21 21 21 21 21 21 22 22 23 23 24 24 24 24 24 24 23 22 21
8 9 10 9 8 8 9 9 10 11 11 12 12 12 13 14 15 17 18 18 18 19 20 20 20 20 20 20 20 20 20 21 22 22 22 22 22 22 22 22 22 22 21 21
9 10 10 10 9 10 10 10 11 11 12 12 13 13 13 15 15 17 18 18 19 20 20 19 19 19 19 20 20 19 19 20 20 20 21 21 21 21 21 22 21 20 20 20
10 11 11 10 9 10 10 10 10 12 12 13 14 14 14 15 15 17 17 17 18 19 19 19 18 19 18 18 18 18 18 19 19 19 19 20 20 20 20 20 19 19 20 20
10 11 12 11 11 11 11 11 11 12 12 13 14 14 14 15 16 17 17 18 18 18 18 17 17 18 18 18 17 17 17 18 18 18 18 19 18 18 19 19 19 19 18 17
12 12 13 13 13 12 12 12 12 12 13 13 15 16 16 16 16 17 17 18 18 18 17 17 17 18 18 17 17 17 18 18 17 18 17 17 18 18 18 18 18 17 16 16
14 15 15 14 14 14 14 14 13 13 14 14 15 16 17 17 17 17 18 18 18 17 17 16 16 16 17 17 16 16 17 16 16 16 16 16 17 17 16 16 16 15 15 15
16 16 16 16 16 15 15 15 14 15 15 16 16 16 18 17 17 17 17 18 18 16 15 15 15 15 15 16 16 16 16 16 16 16 15 16 16 16 15 15 14 14 14 15
18 17 17 16 16 16 16 16 16 16 17 17 17 17 18 18 17 17 17 17 16 15 14 14 14 13 14 14 15 15 15 16 15 15 15 16 15 14 14 15 14 14 15 16
19 19 18 17 17 17 17 17 17 17 17 17 17 17 18 18 17 17 16 15 15 14 14 14 13 13 13 14 14 14 14 15 14 14 15 15 14 14 14 14 14 15 16 17
21 21 20 19 19 18 18 18 18 18 18 18 18 18 18 18 17 16 16 15 14 14 13 13 13 13 13 14 14 14 13 13 13 13 14 14 14 14 14 15 15 16 16 17
22 22 21 21 20 20 20 20 19 19 19 19 19 19 18 17 17 16 16 14 14 13 13 13 13 12 13 14 14 14 13 13 13 13 13 14 15 14 14 14 15 16 16 16
23 23 23 22 22 22 22 20 20 20 20 20 20 20 19 18 17 16 15 14 13 13 13 12 12 12 13 14 14 13 13 13 13 13 13 14 14 14 14 15 15 15 15 15
24 24 24 24 24 25 23 22 22 22 22 21 21 20 19 18 17 16 16 15 14 13 13 12 12 12 13 14 13 13 13 13 13 13 13 13 13 13 14 14 14 14 14 14
25 24 25 25 25 26 25 23 23 23 23 23 22 21 19 18 16 16 15 15 14 13 13 13 13 14 14 14 13 13 14 13 13 12 12 12 12 12 13 14 14 14 14 14
26 26 26 26 27 27 27 26 25 24 24 23 22 21 20 18 17 17 16 15 15 14 14 14 14 14 14 14 14 14 13 13 13 12 12 12 11 11 12 13 14 13 14 14
27 27 27 27 28 28 28 27 25 25 25 24 23 22 21 20 19 18 17 17 17 15 14 14 14 14 14 14 14 13 13 13 12 12 12 12 11 11 12 13 13 13 14 15
27 27 28 27 28 29 28 27 27 27 27 26 24 23 22 21 20 19 19 19 18 16 15 16 16 15 15 14 14 14 13 12 12 11 11 11 10 11 12 12 12 12 13 14
28 28 28 29 29 30 29 29 28 27 27 26 25 23 23 22 21 20 20 19 18 17 17 17 17 16 16 15 14 13 12 12 11 11 11 11 10 11 11 11 11 12 13 14
29 29 29 29 29 29 29 28 28 27 27 27 26 25 24 23 22 21 21 20 19 18 18 17 17 17 16 15 14 13 13 13 13 12 12 12 12 12 12 11 11 12 12 13
29 29 29 30 29 29 29 29 28 28 27 27 27 26 26 24 23 23 22 21 20 19 19 19 18 18 17 16 15 15 14 13 13 13 13 13 13 13 13 12 12 12 14 14
29 29 28 29 29 29 28 28 29 29 28 27 27 27 26 25 25 24 23 22 21 20 20 20 19 18 17 17 16 15 14 14 13 13 13 13 14 13 13 13 13 14 14 14

GEFSCGP_500_meanwind_234.txt.gz
Wind_Speed
9 10 8 9 8 7 8 9 9 10 10 12 12 13 15 16 16 15 17 18 19 20 21 21 21 21 20 21 21 21 21 21 22 23 23 23 24 25 25 24 24 24 25 25
10 9 8 9 8 7 9 10 9 9 9 12 13 13 14 15 16 17 18 20 21 20 21 21 21 21 20 21 20 20 21 22 22 23 23 24 25 24 24 23 23 24 25 25
11 9 9 10 9 8 9 8 9 11 10 12 12 12 13 15 17 18 20 21 21 21 21 21 21 21 21 21 21 21 21 22 23 23 23 23 24 24 24 23 23 24 25 25
10 11 10 9 9 8 9 9 11 12 12 12 13 15 15 16 17 18 20 21 22 21 21 21 21 21 21 22 22 21 22 23 23 23 23 23 23 23 23 23 23 24 24 24
9 10 11 10 9 10 10 10 12 13 13 12 12 15 17 18 18 19 20 22 21 21 21 21 20 20 21 21 22 22 22 22 22 22 22 22 22 22 22 22 22 23 24 24
9 10 11 10 10 11 10 11 11 12 13 14 13 15 18 17 17 20 21 21 21 20 20 21 20 20 20 20 21 21 20 21 21 21 22 22 22 22 22 22 22 23 23 23
8 10 9 10 11 11 11 11 12 14 14 13 15 16 15 15 18 20 21 20 21 20 20 21 21 21 20 20 20 19 19 20 21 21 20 22 22 22 21 21 21 21 21 21
10 11 10 12 14 14 14 13 14 15 13 14 16 18 18 15 18 21 21 21 20 20 20 20 20 19 19 19 19 19 19 20 20 20 20 21 20 20 21 21 20 20 20 20
12 12 11 14 14 13 13 13 13 14 14 14 14 16 19 17 18 20 20 20 20 20 20 20 20 18 18 18 18 19 19 20 20 20 19 19 19 19 20 19 19 19 19 19
14 14 13 14 14 13 13 12 14 14 15 14 13 16 18 20 19 18 19 20 20 21 20 19 18 18 18 18 18 19 19 20 19 18 18 18 18 19 19 18 18 19 18 19
16 16 15 14 14 13 14 14 15 16 15 16 16 17 19 18 20 21 21 21 20 20 19 19 18 18 18 18 18 18 18 18 17 16 17 17 17 17 17 17 18 18 18 18
18 18 17 16 15 16 16 16 15 16 16 16 17 19 20 21 21 21 21 21 20 19 20 19 18 18 18 18 18 17 16 16 16 16 16 16 17 17 16 17 18 18 17 17
19 19 17 16 16 16 16 15 15 16 17 16 16 19 20 21 20 20 21 20 20 20 20 19 19 18 18 18 17 17 16 16 16 16 16 16 16 16 16 16 17 17 17 17
20 21 20 19 18 17 18 17 16 16 17 17 17 19 21 21 21 22 21 20 21 21 20 19 18 18 18 17 17 15 15 15 15 15 15 15 15 15 15 16 16 17 17 17
23 23 23 22 20 20 20 18 18 18 18 18 18 19 21 21 20 21 21 21 21 20 19 19 18 17 17 17 17 16 15 15 15 15 15 15 15 15 15 15 16 17 17 17
24 24 24 23 22 22 22 20 20 20 19 19 19 20 22 21 21 21 22 22 21 20 20 19 18 17 17 17 16 16 15 15 15 15 15 15 14 14 15 15 16 16 16 16
25 25 25 24 23 23 23 22 22 21 21 21 21 22 23 23 22 22 22 22 21 20 19 18 17 16 17 16 16 16 15 14 14 14 14 14 14 14 14 15 15 15 16 16
26 26 26 25 25 25 23 22 23 23 23 23 23 23 24 24 22 22 21 22 22 20 19 18 17 16 16 16 15 15 14 13 13 13 14 13 13 13 14 14 15 16 16 17
26 26 26 26 26 25 24 24 24 24 24 24 24 25 26 25 24 23 22 22 22 20 19 19 17 16 16 15 15 14 13 13 13 13 13 13 13 13 14 14 15 15 16 16
27 27 28 27 27 27 26 26 26 26 26 26 27 27 27 25 24 23 22 21 20 19 19 18 18 17 16 15 14 14 13 13 13 12 12 13 13 13 14 15 15 16 16 16
27 27 27 28 28 27 27 28 27 27 28 29 28 28 27 26 24 24 23 21 20 20 20 19 19 19 18 17 15 14 14 13 13 13 13 14 13 13 14 15 15 15 15 16
27 27 27 27 28 27 28 28 28 29 29 29 29 29 28 26 25 24 23 23 22 22 21 20 20 19 18 18 17 16 15 14 14 14 14 14 15 14 15 15 15 15 15 16
28 26 27 29 29 29 29 29 30 30 30 29 30 29 28 27 26 26 24 23 23 23 22 21 20 19 19 19 18 17 16 16 16 16 15 16 16 15 15 15 15 15 16 16
29 28 29 30 29 29 29 30 31 31 30 30 29 29 28 27 27 26 25 24 23 23 23 22 21 20 20 20 19 18 18 18 18 18 17 17 16 16 16 16 16 16 16 16
29 30 31 31 30 31 31 31 32 32 31 32 31 30 29 29 28 28 27 26 25 24 23 23 22 21 20 20 19 19 19 19 18 18 18 18 17 17 17 17 17 16 16 17
31 31 32 32 32 33 33 32 31 31 31 31 31 29 29 30 29 29 28 27 26 25 24 23 22 21 21 20 20 20 19 19 19 19 20 19 19 18 18 18 17 16 16 17

GEFSCGP_500_meanwind_240.txt.gz
Wind_Speed
14 14 13 12 10 9 9 11 10 9 11 12 12 12 12 12 13 14 14 14 13 14 17 18 18 18 17 15 15 16 16 17 18 19 19 18 19 20 20 20 20 20 21 21
14 13 12 12 11 10 9 10 10 11 11 13 13 13 13 13 14 14 14 14 15 16 17 17 18 19 18 17 16 17 17 18 18 19 18 18 18 19 19 19 20 21 21 22
13 13 14 13 12 11 11 10 11 12 12 12 12 12 12 13 15 14 14 14 15 16 16 16 17 19 19 18 17 17 17 18 18 18 18 18 18 18 19 19 20 21 21 22
14 14 14 14 13 11 10 10 10 12 12 11 13 13 12 13 14 15 14 15 16 16 17 16 17 18 18 18 17 17 17 18 18 18 18 18 18 18 19 19 20 20 21 21
13 13 13 12 11 10 9 10 10 11 12 13 13 15 13 13 13 15 15 15 15 15 17 17 17 17 17 16 16 17 18 18 19 19 19 18 17 18 18 18 18 19 20 20
12 13 13 12 12 12 11 11 10 11 13 13 12 14 14 13 13 14 15 16 15 15 16 17 17 16 17 17 16 17 17 18 18 19 18 17 17 17 17 18 19 19 20 20
13 13 13 12 12 11 12 12 12 13 13 13 12 15 14 13 14 15 16 15 16 15 16 16 17 17 17 17 17 17 17 17 18 17 17 17 17 17 18 18 19 19 20 19
14 13 13 13 13 12 12 13 13 14 14 14 14 16 14 14 14 15 15 15 16 15 16 16 16 17 18 17 16 16 16 17 17 17 17 16 16 17 17 18 18 19 19 19
12 12 13 13 12 13 13 13 13 14 15 15 15 15 14 13 15 16 16 15 16 16 16 15 16 17 17 16 17 16 16 16 16 16 16 16 16 16 17 18 18 19 19 19
13 13 13 13 13 14 14 14 15 16 18 18 16 15 15 15 16 16 17 17 16 16 14 15 16 17 17 17 17 16 15 16 16 16 15 15 15 16 17 17 18 18 18 18
15 14 14 14 15 15 15 16 17 17 18 17 17 17 15 15 15 16 17 17 15 14 14 15 16 16 16 16 16 15 15 16 16 16 15 15 15 16 16 17 17 17 17 17
17 16 15 15 15 15 16 16 16 17 18 18 18 16 15 14 14 15 15 15 14 14 15 16 16 16 16 16 15 16 16 15 15 15 14 15 15 15 15 16 16 17 17 17
18 17 16 16 16 17 18 17 17 18 17 18 19 17 15 15 15 15 15 14 14 15 15 15 15 15 16 16 16 16 15 14 14 14 14 14 14 14 15 15 16 16 16 16
19 20 19 19 18 18 18 19 19 19 19 20 19 18 17 16 16 15 14 14 15 15 15 15 15 15 16 16 16 15 14 14 13 13 12 13 13 14 14 14 15 15 15 15
21 22 22 21 21 21 21 20 21 21 21 21 20 19 18 17 16 15 15 16 16 15 16 16 16 15 14 14 14 14 13 13 13 12 12 12 12 13 14 14 15 15 15 15
23 24 24 23 22 23 23 22 22 21 21 20 20 19 18 18 17 16 17 17 17 17 17 16 15 16 15 14 14 13 13 12 12 12 11 12 13 13 14 14 15 15 15 15
24 24 24 23 23 24 24 23 22 21 21 21 20 20 19 19 19 19 18 17 17 16 17 17 16 16 15 14 13 13 13 12 12 12 11 11 12 13 14 15 15 15 15 15
24 25 25 24 24 25 24 24 23 23 23 22 21 20 21 21 21 20 20 19 18 18 17 17 17 16 16 15 15 14 13 12 12 12 12 12 13 14 14 15 15 15 15 15
25 24 24 25 26 26 25 24 24 24 24 23 23 22 22 22 22 21 21 19 19 19 19 17 17 17 16 16 14 13 13 13 13 13 13 13 13 14 14 15 16 16 16 16
26 25 25 25 26 26 25 24 24 24 25 23 23 23 23 23 23 22 21 20 19 19 19 19 18 18 17 16 15 14 14 14 14 14 14 14 14 14 14 15 16 16 16 16
27 26 26 26 26 26 26 24 23 24 24 23 23 23 24 24 23 22 21 21 21 21 20 20 19 18 17 16 16 15 15 15 15 16 15 15 15 15 15 16 16 16 16 16
27 27 27 27 28 27 25 24 24 24 24 24 24 24 24 25 25 24 23 22 22 21 21 20 20 19 18 17 17 17 17 17 17 17 17 17 17 17 17 17 16 16 15 15
29 29 28 28 28 27 26 26 27 27 27 26 26 25 25 26 26 26 25 24 23 22 22 21 21 20 19 18 18 18 18 18 18 19 18 18 18 18 17 16 16 15 15 14
29 29 29 28 28 28 28 27 27 28 29 28 27 27 26 27 27 27 27 26 26 23 22 22 21 21 20 20 20 19 18 18 19 19 18 18 18 18 17 17 16 15 14 14
26 27 28 29 29 28 28 27 28 28 29 29 29 28 28 28 28 28 27 28 27 25 24 23 22 22 22 22 21 20 19 19 20 19 19 18 18 18 17 17 17 16 15 14
27 26 27 28 28 28 29 29 28 28 28 29 29 30 30 29 29 29 29 28 27 26 26 24 23 24 24 23 22 21 20 20 20 20 20 19 18 18 18 17 18 17 16 15

GEFSCGP_500_meanwind_246.txt.gz
Wind_Speed
20 21 19 18 18 17 16 15 15 14 15 16 15 14 13 12 13 13 13 14 15 15 15 15 15 15 15 15 15 16 15 14 15 16 17 17 17 17 17 16 16 17 18 18
20 20 19 19 18 18 16 15 14 15 16 17 16 15 14 14 13 13 13 14 14 16 15 15 15 15 15 15 16 15 15 15 15 16 16 16 16 16 16 16 16 17 18 18
20 19 19 19 18 17 16 15 14 15 16 17 17 16 15 15 14 13 13 13 14 15 15 15 15 15 15 15 15 15 14 15 15 16 16 16 16 16 16 17 17 17 18 18
19 19 20 19 18 17 15 15 15 16 17 17 18 17 14 14 13 12 12 13 14 15 15 15 15 15 16 16 15 15 15 16 15 16 16 16 16 16 16 17 17 18 18 19
18 19 20 19 18 17 15 16 16 17 18 19 18 18 13 13 12 12 13 14 15 15 15 15 15 16 16 16 16 16 16 16 16 16 16 15 16 17 17 17 18 19 20 20
18 19 19 19 18 17 16 16 16 16 17 18 17 17 14 14 14 13 14 14 15 15 15 15 16 17 18 16 16 16 16 16 16 16 15 16 17 17 18 18 19 20 20 20
17 18 19 18 18 17 17 16 16 16 16 16 16 16 14 14 14 14 15 15 16 16 15 16 17 18 18 16 16 16 15 15 15 15 16 17 17 17 17 18 19 20 20 20
17 18 18 18 18 16 16 17 17 18 16 16 16 16 14 13 14 14 15 15 15 15 15 17 17 17 17 16 16 16 15 15 16 16 16 16 16 16 16 18 19 20 20 19
17 17 17 18 17 17 17 18 18 19 18 17 17 16 15 13 13 13 14 14 14 15 15 16 16 17 17 16 17 15 14 15 15 15 15 16 16 16 17 18 18 19 19 19
17 17 17 18 19 19 18 18 18 19 19 19 17 16 15 14 13 13 14 14 15 15 15 16 16 16 16 17 16 15 14 15 14 14 15 15 16 16 17 17 17 18 18 18
17 17 17 19 20 20 20 19 20 20 20 20 18 16 15 15 14 15 15 15 15 15 14 15 15 16 16 16 16 15 15 15 14 15 15 16 15 15 14 16 16 17 17 17
18 19 19 20 20 21 21 21 21 20 20 19 18 16 16 16 16 16 16 16 16 15 15 15 15 15 15 15 15 15 15 15 15 15 15 15 14 14 14 15 16 16 16 17
19 21 20 20 21 21 21 21 21 21 21 20 19 17 17 17 18 17 16 16 16 16 16 15 15 15 15 14 14 14 15 14 14 14 14 14 13 14 14 15 16 16 16 17
22 22 21 21 21 21 22 21 21 22 21 20 19 18 18 19 18 18 17 17 16 16 16 16 15 15 15 15 15 14 14 14 14 14 14 14 13 14 14 14 15 16 16 16
22 23 22 21 21 22 22 22 22 23 22 21 20 20 19 19 19 18 18 17 17 17 17 16 16 16 16 15 15 14 14 14 14 13 13 14 14 14 14 14 15 15 15 16
23 23 22 21 21 22 23 22 23 23 22 22 22 22 21 20 20 19 18 18 18 17 17 16 16 16 16 16 15 15 14 13 13 13 13 13 13 14 15 14 15 15 15 16
24 24 24 23 23 23 24 23 23 23 23 23 23 21 21 20 20 20 19 19 18 17 16 16 16 16 16 15 15 14 13 12 12 13 13 13 13 14 15 15 15 15 15 15
24 25 25 25 24 25 24 24 24 24 24 23 23 22 22 21 21 21 20 19 18 18 17 17 17 17 16 16 15 14 13 13 14 14 13 13 14 14 15 15 15 15 15 15
25 26 26 26 26 27 26 25 24 23 23 23 23 22 23 22 21 22 21 20 19 19 18 18 17 17 16 16 15 15 15 15 15 15 15 15 14 15 15 14 15 16 16 16
26 26 27 27 27 27 26 26 26 25 24 23 23 23 23 23 23 23 23 22 20 20 20 19 18 18 18 17 17 17 16 16 16 16 16 16 16 15 15 15 15 15 16 16
26 27 27 27 27 27 26 26 26 26 24 24 24 24 23 24 24 24 24 23 23 22 22 20 19 19 20 19 19 19 19 18 17 16 17 17 16 16 15 15 15 15 15 15
26 27 27 27 27 26 25 25 25 25 24 24 24 24 25 25 25 24 25 25 25 24 24 23 22 21 21 21 21 20 21 19 18 17 17 16 17 17 16 16 16 15 15 15
27 27 27 27 27 26 25 24 25 25 24 24 25 26 26 26 26 26 26 26 25 25 25 24 23 23 23 23 22 22 22 22 19 17 17 16 17 16 16 17 16 15 15 15
27 28 28 28 28 28 27 26 26 26 26 26 26 27 27 26 26 26 26 26 26 26 25 25 24 24 24 24 24 24 23 22 21 19 18 18 18 17 17 17 16 16 15 15
28 28 28 29 29 28 28 27 27 27 27 27 27 27 27 27 26 26 27 27 27 26 26 25 25 25 25 25 25 25 24 23 22 20 19 19 19 17 17 17 16 16 15 16
27 28 28 28 28 28 27 27 27 27 27 27 27 26 26 25 25 24 24 24 25 25 24 24 24 24 24 24 25 25 25 24 22 21 20 19 19 18 17 17 17 17 16 16

GEFSCGP_500_meanwind_252.txt.gz
Wind_Speed
19 21 21 20 20 19 18 17 17 17 17 16 16 15 16 15 14 15 16 16 17 16 16 17 17 18 18 18 17 17 15 15 15 15 15 14 14 14 14 15 15 16 17 17
19 20 21 21 21 20 19 18 17 17 17 16 16 15 15 15 15 16 16 17 17 18 17 17 18 18 18 18 17 17 16 16 16 15 14 14 14 14 14 14 15 16 17 17
19 20 21 22 21 20 20 18 17 17 17 17 16 15 15 15 16 17 17 18 18 19 18 17 17 18 18 17 16 16 15 15 16 15 14 14 15 15 15 15 15 16 17 17
20 21 21 21 21 20 19 19 18 18 17 16 16 15 15 15 15 16 17 17 18 18 18 17 17 17 17 17 16 16 15 15 16 15 15 15 15 16 15 15 16 16 17 18
19 20 21 21 21 21 21 19 18 18 17 16 15 15 14 15 16 16 16 17 17 17 17 16 16 16 16 16 16 16 15 15 15 16 15 16 16 15 15 16 16 17 18 18
18 19 20 21 21 22 21 19 18 17 17 16 15 15 15 15 15 16 16 16 16 16 16 15 15 16 16 16 16 16 15 15 15 16 17 16 16 15 15 16 16 17 17 17
18 19 20 20 21 21 21 18 16 16 16 16 16 16 15 14 14 15 15 15 14 14 14 14 14 15 16 16 16 16 16 16 16 16 16 16 15 15 15 16 16 17 17 18
16 18 19 20 20 20 20 18 17 16 15 16 17 16 16 14 14 13 13 14 14 14 14 14 15 15 16 16 15 16 16 16 16 16 16 16 15 16 16 17 17 17 18 18
16 18 19 19 19 19 19 19 18 17 17 16 16 15 16 14 14 14 14 13 14 14 14 14 14 15 15 15 16 17 16 16 16 15 16 16 16 17 17 17 17 17 18 18
18 18 19 19 19 19 20 20 18 18 17 16 16 15 15 14 15 14 14 14 13 13 14 14 14 13 14 15 16 17 17 16 16 16 16 16 16 17 17 17 17 18 18 18
17 18 19 20 20 20 21 21 20 19 19 17 16 17 17 16 16 15 15 14 14 14 14 13 13 13 14 15 15 16 16 16 16 16 16 16 16 16 16 16 16 16 17 17
18 18 19 21 20 21 21 20 20 20 20 19 18 19 19 17 17 17 16 15 15 15 15 14 14 14 14 15 16 16 17 17 17 17 16 15 15 15 14 14 15 15 16 16
18 19 18 19 20 21 21 21 21 21 21 21 20 19 19 18 17 17 17 17 16 15 15 15 15 15 15 16 17 17 17 17 16 16 15 14 14 14 15 15 15 15 16 17
19 20 20 19 20 21 22 21 21 21 21 21 21 20 20 20 18 18 18 17 16 15 15 15 15 15 16 16 17 17 17 17 16 15 14 14 14 15 14 15 15 15 16 17
21 21 21 22 22 22 22 22 22 22 22 22 22 22 21 21 20 19 19 18 17 16 16 16 16 16 17 17 17 17 16 15 15 15 15 15 16 14 14 15 16 16 16 17
23 22 23 23 23 23 23 23 22 22 23 23 23 23 22 22 21 21 21 20 19 18 17 17 17 17 17 17 17 16 15 14 15 15 15 16 16 15 16 15 16 16 16 17
24 24 24 24 24 24 25 24 23 23 22 22 22 22 22 22 22 21 21 20 20 19 19 19 18 18 18 17 17 16 15 15 15 15 15 15 16 16 16 16 16 16 17 16
25 24 25 25 24 26 25 23 23 23 23 23 23 22 22 22 22 22 22 22 21 21 21 20 20 19 18 17 17 16 15 15 15 16 16 17 17 17 17 18 17 17 17 16
25 25 24 25 25 25 25 23 23 24 24 23 23 23 22 22 23 23 23 23 23 22 22 22 21 20 19 18 17 17 17 17 17 17 17 17 17 17 18 18 18 18 17 17
25 25 24 24 24 25 25 24 22 23 24 23 23 23 24 23 24 25 25 24 24 23 23 22 22 21 21 20 20 20 19 19 18 18 17 17 18 18 18 19 19 18 17 17
25 25 25 24 25 27 26 24 23 23 24 23 23 23 23 24 24 24 24 24 24 24 23 23 23 22 21 21 20 20 19 19 20 19 19 18 18 19 19 19 18 18 18 17
24 25 26 25 25 27 25 25 25 24 24 23 23 23 23 24 24 24 24 24 24 24 23 23 23 23 23 22 21 20 20 20 20 20 20 20 19 19 20 19 19 18 18 17
25 25 25 26 26 25 24 24 24 24 24 24 22 22 23 24 24 24 24 24 24 24 24 24 24 24 24 23 22 22 22 22 22 21 21 21 21 20 20 19 19 19 18 17
24 24 24 25 25 25 24 24 24 24 23 22 22 22 23 24 23 23 23 24 24 25 24 25 25 25 25 24 24 25 24 23 23 23 23 23 23 22 21 21 20 20 19 17
24 24 24 24 24 25 24 24 24 24 24 24 23 23 22 23 23 24 24 24 24 24 24 25 25 24 24 25 25 25 24 23 23 23 23 24 24 23 22 21 20 20 18 17
25 25 24 25 24 24 24 25 25 24 24 24 24 23 23 23 24 24 25 25 25 24 25 25 25 24 24 24 24 24 24 23 23 23 23 23 23 22 21 21 20 20 19 18

GEFSCGP_500_meanwind_258.txt.gz
Wind_Speed
16 17 17 16 16 16 16 16 16 16 16 18 19 19 17 18 18 19 18 18 17 17 17 18 17 18 19 19 18 18 18 18 18 17 18 18 18 18 18 18 17 18 17 17
16 18 17 17 18 18 17 17 16 17 17 18 19 18 17 17 17 20 18 17 17 16 17 18 19 19 19 19 19 18 18 17 17 17 18 18 17 17 17 18 18 18 18 18
19 18 18 18 18 19 19 18 18 18 19 18 18 19 18 19 18 19 19 17 17 17 18 19 20 20 20 19 18 18 17 17 17 18 18 17 17 17 17 17 17 16 17 17
19 18 19 19 19 20 20 18 19 19 21 19 18 19 17 18 18 18 17 17 17 18 18 19 19 19 19 18 17 17 17 17 17 17 17 17 16 17 17 17 16 16 17 17
17 18 18 19 18 19 19 18 19 19 20 20 18 18 18 19 18 19 19 18 18 18 19 19 18 19 19 18 17 17 16 16 16 16 16 16 16 17 17 18 17 17 17 17
16 17 19 19 18 19 19 19 19 19 19 20 17 18 19 18 19 19 18 18 19 18 18 17 17 18 17 17 16 16 15 16 15 15 16 16 16 16 17 18 17 18 18 18
16 17 17 18 19 18 19 19 18 19 19 19 16 18 19 19 19 20 20 20 18 17 17 17 18 18 16 15 15 15 15 15 15 15 15 15 16 17 17 17 18 19 19 19
17 18 18 19 19 19 20 20 19 19 17 17 16 19 21 20 19 19 19 18 17 16 16 17 17 17 16 15 15 15 15 15 15 15 15 16 17 17 17 18 19 19 20 19
18 17 17 18 18 20 21 21 20 20 19 18 18 19 20 19 19 19 17 17 17 17 17 18 17 16 15 15 14 15 15 15 14 14 15 16 17 17 18 19 19 20 20 19
17 17 17 17 18 21 19 19 20 21 20 20 19 20 23 22 20 18 18 17 17 17 18 17 16 15 15 15 15 15 16 16 15 15 15 16 17 17 18 19 19 20 19 20
17 18 17 18 18 19 19 20 20 21 21 20 20 21 21 21 21 21 20 18 18 17 17 16 16 16 16 16 15 16 16 16 16 16 16 17 17 17 18 19 19 19 19 20
19 19 19 18 17 19 20 20 21 22 21 21 20 21 22 21 21 21 20 19 20 19 18 17 16 16 16 15 16 17 16 17 17 17 17 18 17 17 17 18 19 19 19 19
22 21 19 18 18 20 21 21 23 23 21 22 22 21 22 22 22 22 21 20 20 19 18 17 17 17 17 17 17 17 17 17 17 17 17 18 18 18 18 18 19 19 19 19
23 23 21 21 19 20 21 21 22 23 24 23 21 22 23 25 23 23 23 21 20 19 19 18 17 18 18 18 17 17 17 18 18 18 19 19 19 18 19 19 19 19 20 20
23 23 22 22 21 21 23 24 25 24 25 25 22 23 25 25 24 24 24 24 23 22 21 19 18 18 18 18 18 18 18 19 19 19 19 18 19 19 19 19 20 20 21 20
24 24 24 23 22 22 23 24 26 24 24 24 24 24 24 25 26 25 25 25 24 22 22 21 20 20 20 19 19 20 20 20 20 20 20 19 19 19 19 19 20 21 20 20
25 24 24 24 23 23 25 24 24 24 25 26 26 25 24 25 25 25 25 25 25 23 22 22 22 22 21 21 20 21 20 20 20 20 20 19 20 19 19 19 20 20 20 19
25 25 25 25 23 24 24 25 24 25 25 25 25 26 25 26 26 26 26 25 25 25 24 23 23 23 23 23 22 21 21 20 20 21 20 20 20 20 19 19 20 20 20 20
25 24 25 24 23 25 25 26 26 26 27 27 27 27 27 26 26 25 25 26 25 25 24 24 24 24 23 23 22 22 21 21 21 22 21 21 21 20 20 20 20 20 20 20
24 25 25 25 25 25 26 26 25 25 28 28 27 27 27 27 27 25 26 26 25 25 24 24 24 23 23 22 22 22 22 22 22 22 21 21 21 22 21 21 21 20 20 19
24 24 25 26 27 26 27 27 26 27 28 29 28 27 27 27 27 26 26 26 26 25 25 25 25 24 24 23 23 23 22 22 22 22 22 21 21 21 21 21 21 21 20 20
23 24 24 26 26 26 26 27 27 28 28 27 27 27 27 27 27 27 26 27 27 26 26 25 25 25 24 23 23 23 23 23 23 22 21 21 21 21 21 21 21 22 21 21
24 24 24 25 26 26 26 27 27 26 27 27 26 26 26 27 27 27 27 27 27 27 26 25 25 25 24 23 23 24 24 24 23 23 22 22 21 22 22 22 22 22 21 21
24 24 25 26 26 25 25 26 26 25 26 26 27 26 27 28 28 27 27 27 27 27 26 25 25 24 24 23 24 24 25 25 25 24 23 23 23 22 23 23 23 22 23 22
24 25 25 26 26 26 25 25 25 25 25 25 25 26 27 27 27 27 26 26 25 25 25 25 25 25 25 25 25 25 25 26 26 25 24 24 23 23 23 23 23 23 22 21
24 24 25 26 26 26 25 25 25 26 26 26 27 27 26 26 25 26 25 24 24 25 25 25 25 25 25 24 24 25 25 25 25 25 25 24 23 23 23 22 22 22 22 21

GEFSCGP_500_meanwind_264.txt.gz
Wind_Speed
19 19 18 18 18 18 18 18 18 17 16 18 19 19 19 17 16 14 13 14 14 15 16 15 14 15 15 14 14 14 15 15 14 13 13 12 13 13 14 14 13 13 14 13
19 18 17 18 19 19 18 18 18 18 17 18 18 18 18 18 16 15 14 14 14 15 15 15 15 15 14 14 14 14 15 14 14 13 12 12 13 13 14 14 13 12 13 13
19 17 18 19 19 19 18 18 18 17 17 18 19 20 19 19 18 16 15 15 14 14 14 14 14 14 14 14 14 14 15 14 14 14 14 14 14 14 14 14 14 14 14 14
19 18 18 19 19 18 18 17 19 18 19 20 20 22 20 19 18 17 15 15 14 12 12 13 13 13 13 14 14 14 15 14 13 13 13 14 14 14 14 14 15 14 14 15
19 19 19 18 18 19 17 18 21 21 21 22 22 23 21 21 19 18 16 13 13 13 11 11 12 12 13 14 14 14 14 13 13 12 13 13 14 14 14 14 15 15 15 15
17 18 18 17 17 18 18 19 21 22 23 23 22 23 21 20 19 17 14 13 12 13 12 12 12 12 13 13 13 13 12 13 13 13 13 13 13 13 14 14 15 16 16 16
16 17 17 17 18 18 19 19 20 21 23 23 21 23 22 21 18 17 16 15 13 13 13 13 12 13 13 12 12 12 12 13 13 13 13 13 13 14 14 15 15 16 16 16
17 17 17 18 19 18 19 19 21 22 21 22 21 22 20 20 19 18 18 16 15 14 13 13 13 13 13 12 12 12 12 13 13 13 13 14 14 14 14 14 14 15 15 16
19 17 17 19 19 20 20 21 20 22 22 22 23 23 21 19 20 19 18 17 15 15 14 14 15 13 12 12 11 12 13 13 13 13 14 14 14 14 14 14 14 15 15 16
20 19 18 19 20 20 22 21 21 22 24 24 22 21 20 20 20 19 17 16 16 15 16 15 15 15 14 13 13 13 13 13 13 14 14 14 14 14 15 15 15 15 16 16
21 21 19 20 22 21 22 22 22 22 23 24 23 22 20 20 20 19 18 18 17 17 17 17 17 17 15 15 15 15 14 13 14 15 14 14 14 15 15 16 15 16 15 16
22 21 21 21 21 22 21 21 21 22 23 24 25 23 21 21 20 18 19 19 19 18 18 18 18 18 17 17 16 15 15 14 15 15 15 16 16 16 16 15 15 16 15 16
23 23 22 20 21 21 22 21 21 22 24 24 24 23 22 23 21 19 19 19 19 19 18 18 19 19 18 17 16 15 15 15 16 16 16 16 16 16 16 15 16 16 16 17
23 24 24 22 20 22 24 24 23 23 25 25 24 22 22 23 22 21 22 21 20 20 19 19 19 18 18 18 18 17 16 16 16 16 16 15 16 16 16 16 17 17 17 17
25 25 24 22 21 22 24 25 25 25 25 25 24 23 23 21 22 22 23 22 21 20 19 19 19 18 19 20 19 19 16 16 16 16 16 16 17 16 16 17 18 18 18 19
26 25 25 24 24 24 25 25 25 25 24 25 25 24 22 22 22 23 22 22 21 20 19 19 18 19 19 20 20 19 18 17 17 17 18 18 18 17 17 18 18 18 19 19
27 25 26 25 25 25 25 24 24 23 23 24 24 24 22 22 22 22 22 22 21 21 20 19 19 19 19 19 20 19 19 19 19 20 19 19 18 18 19 19 19 19 19 19
26 26 27 26 25 26 24 24 25 25 25 25 25 24 23 23 23 24 24 23 23 21 20 20 19 19 19 19 20 19 20 20 20 19 19 19 19 19 19 19 19 20 20 19
26 26 26 26 26 25 26 25 25 24 25 25 25 25 24 24 24 25 23 23 23 23 22 21 19 20 21 21 21 21 21 20 20 20 20 20 20 19 19 19 20 20 20 20
26 26 26 26 26 25 25 26 26 27 27 26 25 25 24 23 24 23 23 22 22 21 21 21 20 21 21 22 21 21 21 21 21 21 20 20 20 20 20 20 20 20 20 20
24 25 25 26 26 25 25 25 25 26 26 25 24 24 23 23 23 22 22 22 22 22 22 21 22 22 22 21 21 21 22 22 22 21 21 20 21 21 20 20 19 20 19 19
23 23 24 24 24 24 24 25 25 25 23 23 23 23 24 24 23 23 23 23 23 23 24 24 24 23 23 22 22 22 22 22 22 22 22 21 21 21 21 20 20 19 19 19
22 23 23 23 23 23 23 25 25 24 23 23 24 24 24 25 25 24 23 23 24 25 25 24 25 25 24 24 23 23 23 22 22 22 22 21 22 21 21 21 21 20 20 20
22 23 23 24 24 22 23 24 24 24 23 24 24 25 24 24 24 24 24 24 25 26 27 26 25 25 25 24 24 23 24 24 23 23 23 22 21 21 21 21 21 20 20 20
22 23 24 24 25 25 24 24 23 23 24 24 23 24 24 24 24 24 24 24 25 25 25 25 25 25 25 24 24 24 24 23 23 23 23 22 22 22 21 22 21 21 21 21
22 22 22 23 24 24 23 24 23 23 23 23 23 23 24 24 24 24 24 25 25 25 24 24 24 24 24 23 23 23 22 23 23 22 22 22 22 22 23 22 21 20 20 20